GW3110 Weather Reports


time (UTC)temp
C
wind
direction
speed
KPH
gust
KPH
rain 1hr
cm
rain 24hr
cm
rain mn
cm
humidity
%
barometer
mb
20260507003548 23 242 12.9 20.9 0.00 0.00 0.00 44 834.7
20260507003046 23 222 12.9 20.9 0.00 0.00 0.00 42 807.6
20260507002029 23 207 11.3 24.1 0.00 0.00 0.00 42 808.2
20260507001528 23 223 12.9 24.1 0.00 0.00 0.00 42 814.8
20260507001027 23 228 14.5 22.5 0.00 0.00 0.00 41 813.7
20260507000009 24 209 9.7 20.9 0.00 0.00 0.00 40 798.1
20260506235508 24 219 8.0 20.9 0.00 0.00 0.00 40 826.2
20260506235007 25 211 4.8 17.7 0.00 0.00 0.00 38 856.7
20260506234506 25 237 4.8 17.7 0.00 0.00 0.00 37 868.8
20260506234005 24 210 4.8 25.7 0.00 0.00 0.00 38 828.7
20260506233500 24 223 9.7 25.7 0.00 0.00 0.00 39 862.3
20260506232959 24 256 8.0 19.3 0.00 0.00 0.00 38 867.3
20260506232458 24 232 9.7 19.3 0.00 0.00 0.00 38 865.0
20260506230925 24 212 3.2 19.3 0.00 0.00 0.00 39 852.3
20260506230424 24 253 12.9 19.3 0.00 0.00 0.00 39 869.7
20260506225923 24 295 6.4 24.1 0.00 0.00 0.00 38 843.0
20260506225422 24 226 12.9 24.1 0.00 0.00 0.00 36 786.0
20260506224405 24 229 6.4 17.7 0.00 0.00 0.00 37 671.4
20260506223904 25 113 3.2 17.7 0.00 0.00 0.00 37 611.8
20260506223403 25 355 11.3 17.7 0.00 0.00 0.00 37 775.2
20260506222902 25 251 8.0 24.1 0.00 0.00 0.00 37 704.9
20260506222401 26 89 0.0 24.1 0.00 0.00 0.00 24 514.9
20260506221859 26 21 4.8 24.1 0.00 0.00 0.00 25 625.5
20260506221358 26 318 6.4 24.1 0.00 0.00 0.00 31 618.5
20260506220857 26 347 4.8 17.7 0.00 0.00 0.00 28 531.9
20260506220356 26 38 6.4 17.7 0.00 0.00 0.00 25 467.5
20260506215855 26 358 4.8 17.7 0.00 0.00 0.00 25 661.5
20260506214838 25 279 9.7 17.7 0.00 0.00 0.00 31 717.6
20260506214337 25 222 4.8 17.7 0.00 0.00 0.00 32 471.1
20260506213836 25 65 4.8 17.7 0.00 0.00 0.00 27 419.6
20260506213334 25 149 4.8 17.7 0.00 0.00 0.00 26 418.8
20260506212832 25 64 8.0 17.7 0.00 0.00 0.00 27 354.3
20260506212331 25 26 4.8 17.7 0.00 0.00 0.00 27 372.5
20260506211830 25 116 4.8 17.7 0.00 0.00 0.00 26 374.6
20260506211329 25 83 4.8 17.7 0.00 0.00 0.00 28 350.3
20260506210828 25 53 8.0 17.7 0.00 0.00 0.00 28 334.7
20260506210327 25 54 8.0 20.9 0.00 0.00 0.00 28 362.1
20260506205825 25 9 4.8 20.9 0.00 0.00 0.00 29 353.6
20260506205324 25 23 3.2 17.7 0.00 0.00 0.00 30 408.3
20260506204823 25 50 6.4 17.7 0.00 0.00 0.00 28 512.0
20260506204321 25 10 6.4 17.7 0.00 0.00 0.00 28 520.6
20260506203820 25 308 4.8 20.9 0.00 0.00 0.00 29 746.7
20260506203319 25 76 1.6 20.9 0.00 0.00 0.00 31 477.5
20260506202305 24 111 1.6 20.9 0.00 0.00 0.00 29 437.6
20260506201801 24 86 1.6 20.9 0.00 0.00 0.00 31 383.6
20260506201300 24 9 4.8 20.9 0.00 0.00 0.00 30 400.2
20260506200759 24 27 4.8 20.9 0.00 0.00 0.00 31 401.5
20260506195226 24 21 8.0 20.9 0.00 0.00 0.00 30 666.4
20260506193713 23 232 3.2 20.9 0.00 0.00 0.00 29 968.8
20260506192139 23 322 0.0 19.3 0.00 0.00 0.00 30 1014.1
20260506191638 23 330 8.0 19.3 0.00 0.00 0.00 33 920.4
20260506191136 23 204 4.8 17.7 0.00 0.00 0.00 33 708.0
20260506190635 23 313 9.7 17.7 0.00 0.00 0.00 33 849.1
20260506190134 23 7 4.8 17.7 0.00 0.00 0.00 32 715.0
20260506185117 22 320 3.2 17.7 0.00 0.00 0.00 34 970.9
20260506184100 22 309 11.3 19.3 0.00 0.00 0.00 34 1030.2
20260506183559 22 312 3.2 17.7 0.00 0.00 0.00 34 962.5
20260506183058 22 335 3.2 17.7 0.00 0.00 0.00 35 1036.2
20260506182557 22 340 6.4 17.7 0.00 0.00 0.00 36 926.5
20260506181540 21 358 1.6 17.7 0.00 0.00 0.00 37 898.5
20260506181039 21 339 3.2 17.7 0.00 0.00 0.00 38 888.9
20260506180538 21 352 6.4 17.7 0.00 0.00 0.00 37 731.8
20260506180037 21 9 3.2 17.7 0.00 0.00 0.00 39 726.4
20260506175536 20 232 3.2 17.7 0.00 0.00 0.00 41 777.8
20260506175035 20 184 3.2 17.7 0.00 0.00 0.00 39 798.3
20260506174534 21 351 4.8 17.7 0.00 0.00 0.00 39 715.2
20260506174033 21 17 3.2 17.7 0.00 0.00 0.00 41 721.5
20260506173532 20 336 0.0 17.7 0.00 0.00 0.00 44 966.9
20260506172515 20 339 1.6 17.7 0.00 0.00 0.00 43 547.6
20260506171458 20 63 3.2 17.7 0.00 0.00 0.00 45 296.2
20260506170957 19 65 3.2 17.7 0.00 0.00 0.00 46 301.4
20260506170456 19 46 1.6 17.7 0.00 0.00 0.00 47 273.0
20260506165955 18 18 1.6 17.7 0.00 0.00 0.00 47 246.7
20260506165454 18 10 3.2 17.7 0.00 0.00 0.00 48 299.6
20260506164953 18 32 3.2 17.7 0.00 0.00 0.00 48 273.4
20260506164452 18 52 0.0 17.7 0.00 0.00 0.00 49 307.3
20260506163951 18 52 0.0 17.7 0.00 0.00 0.00 50 293.5
20260506162934 18 28 1.6 17.7 0.00 0.00 0.00 49 313.1
20260506162433 18 37 1.6 17.7 0.00 0.00 0.00 50 366.1
20260506161416 17 38 0.0 17.7 0.00 0.00 0.00 51 603.8
20260506160915 17 23 1.6 17.7 0.00 0.00 0.00 53 916.3
20260506160414 16 344 1.6 17.7 0.00 0.00 0.00 54 1176.4
20260506155913 16 338 0.0 17.7 0.00 0.00 0.00 54 1174.2
20260506155412 16 338 1.6 17.7 0.00 0.00 0.00 56 1173.0
20260506154911 15 338 0.0 17.7 0.00 0.00 0.00 59 1169.8
20260506154410 15 337 0.0 17.7 0.00 0.00 0.00 60 1163.0
20260506153909 15 336 1.6 17.7 0.00 0.00 0.00 61 1153.0
20260506153408 14 334 0.0 17.7 0.00 0.00 0.00 63 1133.6
20260506152907 14 323 1.6 17.7 0.00 0.00 0.00 65 1104.8
20260506152406 13 320 3.2 17.7 0.00 0.00 0.00 65 1107.6
20260506151905 13 307 6.4 17.7 0.00 0.00 0.00 64 1093.8
20260506151403 13 300 6.4 17.7 0.00 0.00 0.00 66 1095.4
20260506150902 13 320 1.6 17.7 0.00 0.00 0.00 69 1124.9
20260506150401 12 319 1.6 17.7 0.00 0.00 0.00 69 1118.1
20260506145900 12 313 3.2 17.7 0.00 0.00 0.00 69 1097.3
20260506145359 12 327 3.2 17.7 0.00 0.00 0.00 70 1095.2
20260506144858 12 313 4.8 17.7 0.00 0.00 0.00 70 1080.5
20260506144357 12 305 0.0 17.7 0.00 0.00 0.00 72 1073.7
20260506143856 11 303 0.0 17.7 0.00 0.00 0.00 74 1073.8
20260506143355 11 301 1.6 17.7 0.00 0.00 0.00 74 1067.0
20260506142854 11 302 1.6 17.7 0.00 0.00 0.00 74 1068.0
20260506142353 10 293 0.0 17.7 0.00 0.00 0.00 76 1068.4
20260506141852 10 295 1.6 17.7 0.00 0.00 0.00 77 1090.1
20260506140835 10 314 0.0 17.7 0.00 0.00 0.00 80 1129.8
20260506135818 8 348 4.8 17.7 0.00 0.00 0.00 83 1156.4
20260506135317 8 342 6.4 17.7 0.00 0.00 0.00 85 1110.7
20260506134816 7 290 4.8 17.7 0.00 0.00 0.00 88 1031.9
20260506134316 7 283 1.6 17.7 0.00 0.00 0.00 91 1043.1
20260506132746 5 294 6.4 17.7 0.00 0.00 0.00 89 1045.5
20260506132246 5 304 4.8 17.7 0.00 0.00 0.00 89 1041.4
20260506131746 5 297 4.8 17.7 0.00 0.00 0.00 88 1023.9
20260506131246 5 286 0.0 17.7 0.00 0.00 0.00 88 1018.5
20260506130230 5 286 0.0 17.7 0.00 0.00 0.00 87 1019.1
20260506125729 5 286 0.0 17.7 0.00 0.00 0.00 87 1019.9
20260506125228 6 286 0.0 17.7 0.00 0.00 0.00 87 1019.5
20260506124212 6 286 0.0 17.7 0.00 0.00 0.00 87 1018.1
20260506123157 6 286 0.0 17.7 0.00 0.00 0.00 86 1017.4
20260506122657 6 286 0.0 17.7 0.00 0.00 0.00 86 1017.2
20260506122157 6 286 0.0 17.7 0.00 0.00 0.00 85 1018.5
20260506121657 6 286 0.0 17.7 0.00 0.00 0.00 84 1018.4
20260506121157 6 286 0.0 17.7 0.00 0.00 0.00 84 1019.2
20260506120657 7 286 0.0 17.7 0.00 0.00 0.00 83 1019.4
20260506115641 7 286 0.0 17.7 0.00 0.00 0.00 82 1021.6
20260506114626 8 287 0.0 17.7 0.00 0.00 0.00 81 1026.2
20260506114126 8 287 0.0 17.7 0.00 0.00 0.00 82 1028.2
20260506113626 8 287 1.6 17.7 0.00 0.00 0.00 82 1032.0
20260506113126 8 307 4.8 17.7 0.00 0.00 0.00 81 1039.2
20260506112626 8 277 3.2 17.7 0.00 0.00 0.00 81 1044.5
20260506112126 8 304 8.0 17.7 0.00 0.00 0.00 81 1062.5
20260506111626 8 292 8.0 17.7 0.00 0.00 0.00 81 1063.9
20260506111126 8 297 8.0 17.7 0.00 0.00 0.00 81 1083.7
20260506110626 8 314 3.2 17.7 0.00 0.00 0.00 80 1105.9
20260506105610 8 313 3.2 17.7 0.00 0.00 0.00 80 1070.5
20260506105109 8 300 4.8 17.7 0.00 0.00 0.00 80 1051.7
20260506104608 8 291 8.0 17.7 0.00 0.00 0.00 80 1048.6
20260506103035 9 307 6.4 17.7 0.00 0.00 0.00 76 1009.3
20260506102534 10 284 4.8 17.7 0.00 0.00 0.00 76 956.1
20260506102034 9 237 8.0 17.7 0.00 0.00 0.00 77 992.4
20260506101532 9 296 8.0 19.3 0.00 0.00 0.00 78 1028.1
20260506101031 9 290 4.8 19.3 0.00 0.00 0.00 78 1013.6
20260506100014 9 305 3.2 17.7 0.00 0.00 0.00 78 1038.8
20260506095513 9 297 3.2 17.7 0.00 0.00 0.00 78 1038.8
20260506095012 9 306 3.2 17.7 0.00 0.00 0.00 78 1034.8
20260506094511 9 265 4.8 17.7 0.00 0.00 0.00 78 956.6
20260506094010 9 282 6.4 17.7 0.00 0.00 0.00 79 970.8
20260506092953 9 278 4.8 17.7 0.00 0.00 0.00 79 922.6
20260506092452 9 310 3.2 17.7 0.00 0.00 0.00 79 881.1
20260506091951 8 290 1.6 17.7 0.00 0.00 0.00 80 1000.3
20260506091450 9 334 1.6 17.7 0.00 0.00 0.00 79 960.3
20260506090949 9 1 1.6 17.7 0.00 0.00 0.00 79 720.7
20260506085932 9 338 1.6 17.7 0.00 0.00 0.00 78 1012.4
20260506084915 9 317 3.2 17.7 0.00 0.00 0.00 78 969.4
20260506084414 9 8 3.2 17.7 0.00 0.00 0.00 78 797.5
20260506083913 10 327 1.6 17.7 0.00 0.00 0.00 77 910.7
20260506083412 10 316 4.8 17.7 0.00 0.00 0.00 77 711.8
20260506082911 10 178 1.6 22.5 0.00 0.00 0.00 76 731.4
20260506082409 10 294 3.2 22.5 0.00 0.00 0.00 76 894.7
20260506081909 10 224 6.4 17.7 0.00 0.00 0.00 76 882.2
20260506081407 10 233 6.4 19.3 0.00 0.00 0.00 76 900.7
20260506080350 10 65 1.6 17.7 0.00 0.00 0.00 77 798.0
20260506073328 10 291 4.8 17.7 0.00 0.00 0.00 75 973.9
20260506072827 10 267 4.8 20.9 0.00 0.00 0.00 75 917.6
20260506072326 10 221 4.8 20.9 0.00 0.00 0.00 76 914.1
20260506070754 10 282 6.4 17.7 0.00 0.00 0.00 77 988.4
20260506070252 10 306 8.0 20.9 0.00 0.00 0.00 77 1000.8
20260506062245 9 353 1.6 17.7 0.00 0.00 0.00 78 681.3
20260506061744 9 309 1.6 17.7 0.00 0.00 0.00 78 738.2
20260506061243 9 85 1.6 17.7 0.00 0.00 0.00 78 476.9
20260506060742 9 29 1.6 17.7 0.00 0.00 0.00 79 509.4
20260506060240 9 32 3.2 17.7 0.00 0.00 0.00 79 742.7
20260506050659 10 303 8.0 19.3 0.00 0.00 0.00 77 1008.7
20260506050158 10 259 4.8 19.3 0.00 0.00 0.00 77 982.2
20260506044656 10 260 6.4 19.3 0.00 0.00 0.00 77 940.6
20260506044154 10 254 4.8 19.3 0.00 0.00 0.00 77 948.5
20260506043653 10 282 6.4 19.3 0.00 0.00 0.00 77 933.7
20260506042637 10 227 3.2 19.3 0.00 0.00 0.00 77 837.6
20260506042136 10 210 4.8 19.3 0.00 0.00 0.00 77 850.3
20260506041636 10 220 4.8 19.3 0.00 0.00 0.00 77 887.3
20260506041135 10 279 3.2 19.3 0.00 0.00 0.00 77 947.4
20260506040634 10 266 1.6 19.3 0.00 0.00 0.00 76 921.6
20260506040133 10 234 3.2 19.3 0.00 0.00 0.00 76 920.7
20260506035632 10 276 4.8 19.3 0.00 0.00 0.00 76 856.0
20260506034616 10 246 6.4 19.3 0.00 0.00 0.00 76 841.1
20260506033600 10 223 9.7 20.9 0.00 0.00 0.00 76 827.3
20260506033059 10 222 6.4 20.9 0.00 0.00 0.00 75 822.3
20260506032558 10 215 9.7 20.9 0.00 0.00 0.00 75 820.0
20260506032056 11 222 9.7 20.9 0.00 0.00 0.00 74 825.5
20260506031039 11 239 6.4 19.3 0.00 0.00 0.00 73 829.9
20260506030022 11 206 6.4 19.3 0.00 0.00 0.00 72 802.3
20260506025521 11 207 9.7 19.3 0.00 0.00 0.00 72 796.9
20260506025021 11 193 4.8 17.7 0.00 0.00 0.00 72 798.4
20260506024519 11 221 8.0 24.1 0.00 0.00 0.00 71 820.3
20260506023503 11 217 8.0 20.9 0.00 0.00 0.00 71 811.3
20260506023002 11 217 8.0 20.9 0.00 0.00 0.00 71 811.5
20260506022459 11 210 8.0 20.9 0.00 0.00 0.00 71 808.7
20260506021443 11 226 4.8 24.1 0.00 0.00 0.00 71 801.7
20260506020942 12 233 9.7 24.1 0.00 0.00 0.00 70 804.3
20260506020440 12 197 8.0 24.1 0.00 0.00 0.00 70 805.7
20260506015940 12 225 11.3 20.9 0.00 0.00 0.00 69 831.7
20260506014922 12 217 6.4 20.9 0.00 0.00 0.00 69 825.9
20260506014422 12 230 11.3 20.9 0.00 0.00 0.00 69 823.1
20260506013920 12 239 11.3 20.9 0.00 0.00 0.00 68 829.1
20260506013420 12 238 6.4 19.3 0.00 0.00 0.00 68 810.9
20260506012918 12 211 9.7 19.3 0.00 0.00 0.00 68 802.5
20260506010829 12 226 11.3 24.1 0.00 0.00 0.00 67 842.6
20260506010328 12 231 12.9 22.5 0.00 0.00 0.00 67 840.8
20260506004755 13 228 9.7 22.5 0.00 0.00 0.00 65 855.0